Flag for United Kingdom Weather past 2 weeks in Eastbourne, England, United Kingdom

Now
73 °F

Sunny.


Feels Like: 77 °F
Forecast: 61 / 75 °F
Wind: 10 mph from Northeast

Location: Shoreham Airport

Current Time: Jul 24, 2014 at 10:13:11 PM

Latest Report: Jul 24, 2014 at 7:50 PM


Visibility: 10 mi

Pressure: 29.98 "Hg

Humidity: 44%

Dew point: 50 °F

Location of EastbourneLocation

Historic Weather in Eastbourne — Graph

°F

Eastbourne temperature yesterday

Maximum temperature yesterday: 82 °F (at 3:20 PM)
Minimum temperature yesterday: 77 °F (at 7:20 PM)
Average temperature yesterday: 81 °F

Past Weeks' High & Low Weather Summary

 TemperatureHumidityPressure
High82 °F (Jul 23, 3:20 PM)94% (Jul 11, 12:50 PM)30.18 "Hg (Jul 11, 12:50 PM)
Low57 °F (Jul 11, 12:50 PM)39% (Jul 24, 7:20 PM)29.74 "Hg (Jul 13, 10:20 AM)
Average70 °F74%29.99 "Hg
* Reported Jul 9 7:20 PM — Jul 24 7:50 PM, Eastbourne, Weather by CustomWeather, © 2014

Note: Actual official high and low records may vary slightly from our data, if they occured in-between our weather recording intervals... More about our weather records

Advertising

Eastbourne weather history for previous 24 hours

 ConditionsComfort  
Time TempWeatherWind HumidityBarometerVisibility
7:50 PM
Jul 24
73 °FSunny.10 mph44%29.98 "Hg10 mi
7:20 PM77 °FSunny.14 mph39%29.98 "Hg10 mi
6:50 PM79 °FSunny.13 mph42%29.98 "Hg10 mi
6:20 PM79 °FPassing clouds.15 mph42%29.98 "HgN/A
5:50 PM81 °FPassing clouds.12 mph45%29.98 "HgN/A
5:20 PM81 °FPassing clouds.13 mph45%29.98 "HgN/A
4:50 PM81 °FPassing clouds.14 mph45%29.98 "HgN/A
4:20 PM82 °FPassing clouds.10 mph42%29.98 "HgN/A
3:50 PM82 °FPassing clouds.13 mph45%29.98 "HgN/A
3:20 PM82 °FPassing clouds.10 mph48%29.98 "HgN/A
2:50 PM82 °FPassing clouds.12 mph42%29.98 "HgN/A
2:20 PM82 °FPassing clouds.13 mph45%29.98 "HgN/A
1:50 PM82 °FPassing clouds.12 mph48%30.01 "HgN/A
1:20 PM81 °FPassing clouds.14 mph45%30.01 "HgN/A
12:50 PM81 °FPassing clouds.14 mph51%30.01 "HgN/A
12:20 PM81 °FPassing clouds.14 mph51%30.01 "HgN/A
11:50 AM81 °FPassing clouds.14 mph51%30.01 "HgN/A
11:20 AM79 °FSunny.15 mph54%30.01 "Hg10 mi
10:50 AM77 °FSunny.12 mph61%30.01 "Hg10 mi
10:20 AM75 °FSunny.12 mph65%30.01 "Hg10 mi
9:50 AM73 °FSunny.12 mph69%30.01 "Hg10 mi
9:20 AM72 °FSunny.10 mph73%30.01 "Hg10 mi
8:50 AM70 °FSunny.14 mph78%30.01 "Hg10 mi
8:20 AM66 °FSunny.14 mph83%30.01 "Hg10 mi
7:50 AM64 °FSunny.13 mph88%30.01 "Hg10 mi
Weather by CustomWeather, © 2014

See weather overviewHow to use our weather pages